| time (UTC) | temp F | wind direction | speed MPH | gust MPH | rain 1hr in | rain 24hr in | rain mn in | humidity % | barometer mb |
| 20260905134556 | 69 | 46 | 1.0 | 4.0 | 0.00 | 0.00 | 0.00 | 91 | 1016.9 |
| 20260905133049 | 69 | 28 | 2.0 | 3.0 | 0.00 | 0.00 | 0.00 | 91 | 1016.8 |
| 20260905131551 | 69 | 38 | 2.0 | 3.0 | 0.00 | 0.00 | 0.00 | 91 | 1016.6 |
| 20260905130044 | 68 | 51 | 0.0 | 4.0 | 0.00 | 0.00 | 0.00 | 91 | 1016.1 |
| 20260905124543 | 68 | 19 | 2.0 | 5.0 | 0.00 | 0.00 | 0.00 | 91 | 1015.4 |
| 20260905123040 | 68 | 52 | 3.0 | 8.0 | 0.00 | 0.00 | 0.00 | 91 | 1015.0 |
| 20260905121538 | 68 | 40 | 0.0 | 3.0 | 0.00 | 0.00 | 0.00 | 91 | 1015.3 |
| 20260905120037 | 68 | 46 | 1.0 | 4.0 | 0.00 | 0.00 | 0.00 | 91 | 1015.4 |
| 20260905114541 | 68 | 49 | 1.0 | 3.0 | 0.00 | 0.00 | 0.00 | 90 | 1015.4 |
| 20260905113037 | 67 | 34 | 2.0 | 5.0 | 0.00 | 0.00 | 0.00 | 90 | 1015.1 |
| 20260905111533 | 67 | 69 | 2.0 | 6.0 | 0.00 | 0.00 | 0.00 | 90 | 1015.1 |
| 20260905110034 | 67 | 46 | 2.0 | 6.0 | 0.00 | 0.00 | 0.00 | 90 | 1015.1 |
| 20260905104529 | 68 | 80 | 3.0 | 6.0 | 0.00 | 0.00 | 0.00 | 89 | 1014.9 |
| 20260905103029 | 68 | 31 | 2.0 | 5.0 | 0.00 | 0.00 | 0.00 | 89 | 1014.8 |
| 20260905101539 | 68 | 49 | 2.0 | 8.0 | 0.00 | 0.00 | 0.00 | 89 | 1014.7 |
| 20260905100028 | 68 | 40 | 0.0 | 8.0 | 0.00 | 0.00 | 0.00 | 89 | 1014.9 |
| 20260905094527 | 68 | 42 | 2.0 | 10.0 | 0.00 | 0.00 | 0.00 | 89 | 1014.1 |
| 20260905093025 | 68 | 69 | 4.0 | 11.0 | 0.00 | 0.00 | 0.00 | 88 | 1014.0 |
| 20260905091524 | 68 | 42 | 3.0 | 9.0 | 0.00 | 0.00 | 0.00 | 88 | 1014.2 |
| 20260905090023 | 68 | 42 | 4.0 | 10.0 | 0.00 | 0.00 | 0.00 | 88 | 1014.4 |
| 20260905084522 | 68 | 67 | 2.0 | 10.0 | 0.00 | 0.00 | 0.00 | 88 | 1014.5 |
| 20260905083031 | 68 | 11 | 4.0 | 9.0 | 0.00 | 0.00 | 0.00 | 88 | 1014.5 |
| 20260905081520 | 68 | 45 | 3.0 | 11.0 | 0.00 | 0.00 | 0.00 | 88 | 1014.5 |
| 20260905080020 | 68 | 28 | 3.0 | 8.0 | 0.00 | 0.00 | 0.00 | 88 | 1014.6 |
| 20260905074519 | 67 | 23 | 2.0 | 9.0 | 0.00 | 0.00 | 0.00 | 87 | 1014.7 |
| 20260905073023 | 67 | 22 | 2.0 | 9.0 | 0.00 | 0.00 | 0.00 | 87 | 1014.8 |
| 20260905071517 | 68 | 23 | 2.0 | 8.0 | 0.00 | 0.00 | 0.00 | 86 | 1014.7 |
| 20260905070016 | 68 | 20 | 1.0 | 3.0 | 0.00 | 0.00 | 0.00 | 85 | 1014.8 |
| 20260905064523 | 68 | 13 | 3.0 | 6.0 | 0.00 | 0.00 | 0.00 | 85 | 1014.6 |
| 20260905063013 | 69 | 5 | 3.0 | 8.0 | 0.00 | 0.00 | 0.00 | 84 | 1014.7 |
| 20260905061510 | 69 | 346 | 3.0 | 6.0 | 0.00 | 0.00 | 0.00 | 84 | 1014.7 |
| 20260905060015 | 70 | 15 | 1.0 | 5.0 | 0.00 | 0.00 | 0.00 | 83 | 1014.6 |
| 20260905054506 | 70 | 30 | 2.0 | 5.0 | 0.00 | 0.00 | 0.00 | 82 | 1014.4 |
| 20260905053007 | 70 | 24 | 1.0 | 4.0 | 0.00 | 0.00 | 0.00 | 81 | 1014.5 |
| 20260905051539 | 71 | 38 | 0.0 | 3.0 | 0.00 | 0.00 | 0.00 | 80 | 1014.3 |
| 20260905050035 | 71 | 38 | 2.0 | 9.0 | 0.00 | 0.00 | 0.00 | 80 | 1014.0 |
| 20260905044532 | 72 | 55 | 2.0 | 8.0 | 0.00 | 0.00 | 0.00 | 79 | 1014.0 |
| 20260905043030 | 72 | 11 | 3.0 | 8.0 | 0.00 | 0.00 | 0.00 | 78 | 1014.2 |
| 20260905041529 | 73 | 78 | 4.0 | 9.0 | 0.00 | 0.00 | 0.00 | 77 | 1014.3 |
| 20260905040024 | 73 | 47 | 4.0 | 11.0 | 0.00 | 0.00 | 0.00 | 76 | 1014.1 |
| 20260905034523 | 74 | 36 | 4.0 | 11.0 | 0.00 | 0.00 | 0.00 | 76 | 1014.2 |
| 20260905033020 | 74 | 355 | 3.0 | 6.0 | 0.00 | 0.00 | 0.00 | 75 | 1014.1 |
| 20260905031523 | 75 | 19 | 4.0 | 11.0 | 0.00 | 0.00 | 0.00 | 74 | 1014.0 |
| 20260905030017 | 76 | 18 | 5.0 | 11.0 | 0.00 | 0.00 | 0.00 | 73 | 1013.9 |
| 20260905024527 | 76 | 54 | 5.0 | 14.0 | 0.00 | 0.00 | 0.00 | 71 | 1013.6 |
| 20260905023007 | 77 | 355 | 8.0 | 13.0 | 0.00 | 0.00 | 0.00 | 70 | 1013.4 |
| 20260905021502 | 78 | 13 | 6.0 | 11.0 | 0.00 | 0.00 | 0.00 | 70 | 1013.2 |
| 20260905020107 | 79 | 360 | 2.0 | 11.0 | 0.00 | 0.00 | 0.00 | 70 | 1013.2 |
| 20260905014557 | 80 | 11 | 2.0 | 8.0 | 0.00 | 0.00 | 0.00 | 69 | 1013.0 |
| 20260905013054 | 80 | 11 | 1.0 | 8.0 | 0.00 | 0.00 | 0.00 | 69 | 1013.0 |
| 20260905011546 | 81 | 32 | 1.0 | 6.0 | 0.00 | 0.00 | 0.00 | 68 | 1012.8 |
| 20260905010050 | 81 | 12 | 2.0 | 5.0 | 0.00 | 0.00 | 0.00 | 67 | 1012.7 |
| 20260905004555 | 82 | 46 | 0.0 | 4.0 | 0.00 | 0.00 | 0.00 | 66 | 1012.6 |
| 20260905003037 | 83 | 63 | 1.0 | 4.0 | 0.00 | 0.00 | 0.00 | 64 | 1012.6 |
| 20260905001535 | 84 | 27 | 0.0 | 4.0 | 0.00 | 0.00 | 0.00 | 63 | 1012.4 |
| 20260905000033 | 85 | 355 | 3.0 | 8.0 | 0.00 | 0.00 | 0.00 | 62 | 1012.3 |
| 20260904234532 | 86 | 355 | 2.0 | 5.0 | 0.00 | 0.00 | 0.00 | 62 | 1012.3 |
| 20260904233033 | 86 | 324 | 4.0 | 10.0 | 0.00 | 0.00 | 0.00 | 63 | 1012.2 |
| 20260904231535 | 87 | 26 | 3.0 | 8.0 | 0.00 | 0.00 | 0.00 | 62 | 1012.2 |
| 20260904230029 | 87 | 58 | 2.0 | 6.0 | 0.00 | 0.00 | 0.00 | 61 | 1012.0 |
| 20260904224527 | 87 | 323 | 3.0 | 8.0 | 0.00 | 0.00 | 0.00 | 62 | 1012.0 |
| 20260904223027 | 86 | 331 | 4.0 | 9.0 | 0.00 | 0.00 | 0.00 | 61 | 1011.9 |
| 20260904221526 | 87 | 355 | 3.0 | 8.0 | 0.00 | 0.00 | 0.00 | 62 | 1011.8 |
| 20260904220025 | 87 | 51 | 3.0 | 9.0 | 0.00 | 0.00 | 0.00 | 61 | 1011.6 |
| 20260904214524 | 87 | 355 | 4.0 | 8.0 | 0.00 | 0.00 | 0.00 | 62 | 1011.6 |
| 20260904213028 | 87 | 34 | 4.0 | 9.0 | 0.00 | 0.00 | 0.00 | 62 | 1011.5 |
| 20260904211523 | 87 | 355 | 4.0 | 9.0 | 0.00 | 0.00 | 0.00 | 63 | 1011.6 |
| 20260904210027 | 86 | 32 | 3.0 | 10.0 | 0.00 | 0.00 | 0.00 | 63 | 1011.7 |
| 20260904204517 | 86 | 301 | 2.0 | 8.0 | 0.00 | 0.00 | 0.00 | 65 | 1011.5 |
| 20260904203016 | 85 | 9 | 4.0 | 9.0 | 0.00 | 0.00 | 0.00 | 66 | 1011.3 |
| 20260904201512 | 85 | 351 | 1.0 | 9.0 | 0.00 | 0.00 | 0.00 | 68 | 1011.1 |
| 20260904190019 | 83 | 86 | 3.0 | 10.0 | 0.00 | 0.00 | 0.00 | 71 | 1011.8 |
| 20260904184512 | 83 | 355 | 5.0 | 13.0 | 0.00 | 0.03 | 0.00 | 71 | 1011.8 |
| 20260904183014 | 81 | 5 | 4.0 | 11.0 | 0.00 | 0.03 | 0.00 | 73 | 1011.7 |
| 20260904181510 | 81 | 350 | 5.0 | 12.0 | 0.00 | 0.03 | 0.00 | 74 | 1011.7 |
| 20260904180011 | 82 | 350 | 7.0 | 13.0 | 0.00 | 0.03 | 0.00 | 73 | 1011.7 |
| 20260904174507 | 82 | 355 | 3.0 | 11.0 | 0.00 | 0.03 | 0.00 | 74 | 1011.5 |
| 20260904173004 | 82 | 13 | 4.0 | 10.0 | 0.00 | 0.03 | 0.00 | 74 | 1011.4 |
| 20260904171502 | 82 | 355 | 5.0 | 10.0 | 0.00 | 0.03 | 0.00 | 74 | 1011.3 |
| 20260904170100 | 82 | 351 | 3.0 | 12.0 | 0.00 | 0.03 | 0.00 | 76 | 1011.2 |
| 20260904164559 | 81 | 334 | 4.0 | 10.0 | 0.00 | 0.03 | 0.00 | 75 | 1011.2 |
| 20260904163058 | 83 | 355 | 4.0 | 11.0 | 0.00 | 0.03 | 0.00 | 74 | 1011.0 |
| 20260904161553 | 85 | 5 | 4.0 | 11.0 | 0.00 | 0.03 | 0.00 | 72 | 1010.8 |
| 20260904160050 | 85 | 338 | 3.0 | 7.0 | 0.00 | 0.03 | 0.00 | 72 | 1010.6 |
| 20260904154546 | 85 | 322 | 2.0 | 6.0 | 0.00 | 0.03 | 0.00 | 70 | 1010.6 |
| 20260904153044 | 84 | 11 | 1.0 | 4.0 | 0.00 | 0.03 | 0.00 | 72 | 1010.3 |
| 20260904151538 | 84 | 298 | 1.0 | 4.0 | 0.00 | 0.03 | 0.00 | 73 | 1010.2 |
| 20260904150038 | 83 | 254 | 1.0 | 3.0 | 0.00 | 0.03 | 0.00 | 75 | 1010.1 |
| 20260904144530 | 82 | 200 | 1.0 | 3.0 | 0.00 | 0.03 | 0.00 | 77 | 1010.0 |
| 20260904143026 | 82 | 355 | 1.0 | 4.0 | 0.00 | 0.03 | 0.00 | 76 | 1010.1 |
| 20260904141526 | 82 | 146 | 0.0 | 2.0 | 0.00 | 0.03 | 0.00 | 76 | 1010.0 |
| 20260904140018 | 80 | 133 | 0.0 | 2.0 | 0.00 | 0.03 | 0.00 | 79 | 1009.9 |